Weather History for KNQI - November, 2011

Change the Weather History Date:

Tuesday, November 22, 2011

  Actual Average Record
Temperature  
Mean Temperature 75 °F -  
Max Temperature 87 °F 72 °F 87 °F (2011)
Min Temperature 60 °F 53 °F 37 °F (2005)
Cooling Degree Days 10    
Growing Degree Days 25 (Base 50)    
Moisture  
Dew Point 63 °F    
Average Humidity 67    
Maximum Humidity 94    
Minimum Humidity 24    
Precipitation  
Precipitation 0.00 in - - ()
Sea Level Pressure  
Sea Level Pressure 29.97 in    
Wind  
Wind Speed 9 mph (WNW)    
Max Wind Speed 20 mph    
Max Gust Speed 25 mph    
Visibility 9 miles    
Events      
Averages and records for this station are not official NWS values.
T = Trace of Precipitation, MM = Missing Value Source: NWS Daily Summary

Daily Weather History Graph

Daily Weather History Graph

Search for Another Location

Airport or City:

Trip Planner

Search our weather history database for the weather conditions in past years. The results will help you decide how hot, cold, wet, or windy it might be!

Date:

Astronomy

Nov. 22, 2011 Rise Set
Actual Time 6:57 AM CST 5:37 PM CST
Civil Twilight 6:32 AM CST 6:02 PM CST
Nautical Twilight 6:03 AM CST 6:30 PM CST
Astronomical Twilight 5:35 AM CST 6:58 PM CST
Moon 4:00 AM CST (11/22) 3:29 PM CST (11/22)
Length of Visible Light 11h 29m
Length of Day
10h 40m
Waning Crescent, 9% of the Moon is Illuminated
Nov 22
Waning Crescent
Nov 25
New
Dec 2
First Quarter
Dec 10
Full
Dec 17
Last Quarter

Hourly Weather History & Observations

Time (CST) Temp. Heat Index Dew Point Humidity Pressure Visibility Wind Dir Wind Speed Gust Speed Precip Events Conditions
12:36 AM 75.2 °F - 71.6 °F 89% 29.88 in 9.0 mi South 9.2 mph - N/A   Scattered Clouds
12:56 AM 75.0 °F - 71.1 °F 87% 29.87 in 9.0 mi South 8.1 mph - N/A   Partly Cloudy
1:56 AM 75.0 °F - 71.1 °F 87% 29.86 in 10.0 mi SSE 10.4 mph - N/A   Clear
2:56 AM 73.9 °F - 71.1 °F 91% 29.85 in 9.0 mi SSE 11.5 mph - N/A   Clear
3:56 AM 73.9 °F - 71.1 °F 91% 29.85 in 9.0 mi SSE 9.2 mph - N/A   Mostly Cloudy
4:08 AM 73.4 °F - 71.6 °F 94% 29.86 in 8.0 mi SSE 10.4 mph - N/A   Scattered Clouds
4:27 AM 73.4 °F - 71.6 °F 94% 29.85 in 8.0 mi SSE 11.5 mph - N/A   Mostly Cloudy
4:56 AM 75.0 °F - 71.1 °F 87% 29.86 in 8.0 mi South 8.1 mph - N/A   Mostly Cloudy
5:56 AM 75.0 °F - 71.1 °F 87% 29.91 in 8.0 mi Calm Calm - N/A   Overcast
6:18 AM 73.4 °F - 69.8 °F 88% 29.91 in 8.0 mi SSE 4.6 mph - N/A   Mostly Cloudy
6:56 AM 72.0 °F - 70.0 °F 93% 29.92 in 6.0 mi Calm Calm - N/A   Mostly Cloudy
7:56 AM 73.0 °F - 70.0 °F 90% 29.95 in 6.0 mi Calm Calm - N/A   Scattered Clouds
8:28 AM 75.2 °F - 71.6 °F 89% 29.97 in 7.0 mi Calm Calm - N/A   Mostly Cloudy
8:46 AM 78.8 °F - 71.6 °F 78% 29.97 in 7.0 mi SW 6.9 mph - N/A   Mostly Cloudy
8:56 AM 79.0 °F - 71.1 °F 77% 29.96 in 8.0 mi WSW 6.9 mph - N/A   Mostly Cloudy
9:56 AM 80.1 °F 83.2 °F 70.0 °F 71% 29.98 in 8.0 mi WSW 12.7 mph - N/A   Mostly Cloudy
10:46 AM 82.4 °F 86.3 °F 69.8 °F 66% 29.99 in 9.0 mi WSW 11.5 mph 18.4 mph N/A   Mostly Cloudy
10:56 AM 82.0 °F 84.9 °F 68.0 °F 62% 29.98 in 10.0 mi WSW 13.8 mph 20.7 mph N/A   Mostly Cloudy
11:06 AM 82.4 °F 85.4 °F 68.0 °F 62% 29.99 in 10.0 mi WNW 13.8 mph - N/A   Mostly Cloudy
11:20 AM 82.4 °F 85.4 °F 68.0 °F 62% 29.98 in 10.0 mi WNW 12.7 mph - N/A   Mostly Cloudy
11:56 AM 82.9 °F 85.8 °F 68.0 °F 60% 29.97 in 10.0 mi NW 15.0 mph 21.9 mph N/A   Mostly Cloudy
12:56 PM 84.9 °F 86.1 °F 64.0 °F 49% 29.96 in 10.0 mi NNW 19.6 mph 25.3 mph N/A   Scattered Clouds
1:56 PM 86.0 °F 85.4 °F 59.0 °F 40% 29.95 in 10.0 mi NNW 16.1 mph 25.3 mph N/A   Scattered Clouds
2:56 PM 87.1 °F - 51.1 °F 29% 29.95 in 10.0 mi North 16.1 mph 23.0 mph N/A   Partly Cloudy
3:56 PM 86.0 °F - 46.9 °F 26% 29.96 in 10.0 mi North 12.7 mph - N/A   Partly Cloudy
4:56 PM 82.9 °F - 43.0 °F 24% 29.98 in 10.0 mi North 11.5 mph - N/A   Scattered Clouds
5:56 PM 77.0 °F - 44.1 °F 31% 30.00 in 10.0 mi North 8.1 mph - N/A   Scattered Clouds
6:56 PM 72.0 °F - 44.1 °F 37% 30.04 in 10.0 mi North 6.9 mph - N/A   Partly Cloudy
7:56 PM 69.1 °F - 45.0 °F 42% 30.07 in 10.0 mi North 5.8 mph - N/A   Partly Cloudy
8:56 PM 66.0 °F - 46.0 °F 48% 30.11 in 10.0 mi NNE 8.1 mph - N/A   Partly Cloudy
9:56 PM 66.0 °F - 51.1 °F 59% 30.14 in 10.0 mi NE 15.0 mph 23.0 mph N/A   Partly Cloudy
10:56 PM 63.0 °F - 50.0 °F 63% 30.17 in 10.0 mi NNE 10.4 mph - N/A   Clear
11:56 PM 60.1 °F - 48.9 °F 67% 30.18 in 10.0 mi NNE 12.7 mph 20.7 mph N/A   Clear